Tracking 22879 objects as of 21-Apr-2021
HD Live streaming from Space Station
objects crossing your sky now

STARLINK-2333

Track STARLINK-2333 now!
10-day predictions
STARLINK-2333 is classified as:


NORAD ID: 47877
Int'l Code: 2021-021T
Perigee: 356.0 km
Apogee: 357.4 km
Inclination: 53.1 °
Period: 91.5 minutes
Semi major axis: 6727 km
RCS: Unknown
Launch date: March 14, 2021
Source: United States (US)
Launch site: AIR FORCE EASTERN TEST RANGE (AFETR)
aabbcc
Your satellite tracking list
Your tracking list is empty




NASA's NSSDC Master Catalog

Two Line Element Set (TLE):
1 47877U 21021T   21110.91667824 -.00106332  00000-0 -76018-3 0  9999
2 47877  53.0507  31.5732 0001007  71.8638 237.6033 15.73276824  1760
Source of the keplerian elements: AFSPC